Bridgeport, CT

3:32 AM EST on February 19, 2018 (GMT -0500)
Sikorsky Memorial

Weather History for KBDR - August, 2013

Change the Weather History Date:

Wednesday, August 28, 2013

  Actual Average Record
Temperature  
Mean Temperature 76 °F 72 °F  
Max Temperature 84 °F 79 °F 96 °F (1948)
Min Temperature 68 °F 64 °F 50 °F (1986)
Degree Days  
Heating Degree Days 0 0  
Month to date heating degree days 0 0  
Since 1 June heating degree days 18 33  
Since 1 July heating degree days 0 1  
Cooling Degree Days 11 7  
Month to date cooling degree days 216 242  
Year to date cooling degree days 854 698  
Since 1 June cooling degree days 816 674  
Growing Degree Days 26 (Base 50)    
Moisture  
Dew Point 69 °F    
Average Humidity 78    
Maximum Humidity 93    
Minimum Humidity 63    
Precipitation  
Precipitation 0.00 in 0.11 in 2.50 in (2011)
Month to date precipitation 2.11 3.64  
Year to date precipitation 26.78 28.58  
Snow  
Snow 0.00 in 0.00 in 0.00 in (2002)
Month to date snowfall 0.0 0.0  
Since 1 July snowfall 0.0 0.0  
Snow Depth 0.00 in    
Sea Level Pressure  
Sea Level Pressure 29.88 in    
Wind  
Wind Speed 5 mph (ESE)    
Max Wind Speed 13 mph    
Max Gust Speed 17 mph    
Visibility 10 miles    
Events      
T = Trace of Precipitation, MM = Missing Value Source: NWS Daily Summary

Daily Weather History Graph

Daily Weather History Graph

Search for Another Location

Airport or City:

Trip Planner

Search our weather history database for the weather conditions in past years. The results will help you decide how hot, cold, wet, or windy it might be!

Date:

Astronomy

Aug. 28, 2013 Rise Set
Actual Time 6:15 AM EDT 7:31 PM EDT
Civil Twilight 5:46 AM EDT 7:59 PM EDT
Nautical Twilight 5:12 AM EDT 8:33 PM EDT
Astronomical Twilight 4:36 AM EDT 9:09 PM EDT
Moon No Moon Rise 2:08 PM EDT (8/28)
Length of Visible Light 14h 13m
Length of Day
13h 16m
Waning Gibbous, 47% of the Moon is Illuminated
Aug 28
Waning Gibbous
Sep 5
New
Sep 12
First Quarter
Sep 19
Full
Sep 26
Last Quarter

Hourly Weather History & Observations

Time (EDT) Temp. Heat Index Dew Point Humidity Pressure Visibility Wind Dir Wind Speed Gust Speed Precip Events Conditions
12:52 AM 73.0 °F - 70.0 °F 90% 29.90 in 10.0 mi Calm Calm - N/A   Mostly Cloudy
1:52 AM 73.0 °F - 70.0 °F 90% 29.88 in 9.0 mi SW 3.5 mph - N/A   Clear
2:52 AM 72.0 °F - 70.0 °F 93% 29.87 in 6.0 mi Calm Calm - N/A   Clear
3:52 AM 71.1 °F - 69.1 °F 93% 29.86 in 10.0 mi Calm Calm - N/A   Partly Cloudy
4:52 AM 69.1 °F - 66.9 °F 93% 29.87 in 10.0 mi Calm Calm - N/A   Partly Cloudy
5:52 AM 68.0 °F - 66.0 °F 93% 29.88 in 10.0 mi Calm Calm - N/A   Clear
6:52 AM 70.0 °F - 66.9 °F 90% 29.89 in 10.0 mi North 3.5 mph - N/A   Partly Cloudy
7:52 AM 73.0 °F - 68.0 °F 84% 29.89 in 10.0 mi Calm Calm - N/A   Partly Cloudy
8:52 AM 77.0 °F - 68.0 °F 74% 29.89 in 10.0 mi Calm Calm - N/A   Clear
9:52 AM 77.0 °F - 68.0 °F 74% 29.89 in 10.0 mi East 6.9 mph - N/A   Clear
10:52 AM 78.1 °F - 68.0 °F 71% 29.89 in 10.0 mi ESE 8.1 mph - N/A   Clear
11:52 AM 79.0 °F - 69.1 °F 72% 29.88 in 10.0 mi SSE 8.1 mph - N/A   Clear
12:52 PM 81.0 °F 84.1 °F 69.1 °F 67% 29.87 in 10.0 mi East 6.9 mph - N/A   Clear
1:52 PM 82.9 °F 85.8 °F 68.0 °F 60% 29.86 in 10.0 mi East 6.9 mph - N/A   Clear
2:52 PM 82.0 °F 85.5 °F 69.1 °F 65% 29.86 in 10.0 mi ESE 6.9 mph - N/A   Clear
3:52 PM 80.1 °F 82.7 °F 68.0 °F 67% 29.86 in 10.0 mi SSE 6.9 mph - N/A   Clear
4:52 PM 79.0 °F - 70.0 °F 74% 29.86 in 10.0 mi SSW 11.5 mph - N/A   Mostly Cloudy
5:52 PM 80.1 °F 83.6 °F 71.1 °F 74% 29.86 in 10.0 mi WSW 3.5 mph - N/A   Clear
6:52 PM 79.0 °F - 69.1 °F 72% 29.87 in 10.0 mi NNW 4.6 mph - N/A   Clear
7:52 PM 75.9 °F - 70.0 °F 82% 29.87 in 10.0 mi SSW 3.5 mph - N/A   Clear
8:52 PM 75.0 °F - 70.0 °F 84% 29.89 in 10.0 mi SSE 3.5 mph - N/A   Mostly Cloudy
9:52 PM 75.0 °F - 70.0 °F 84% 29.90 in 10.0 mi NNE 3.5 mph - N/A   Clear
10:52 PM 75.0 °F - 71.1 °F 87% 29.90 in 10.0 mi ENE 4.6 mph - N/A   Clear
11:41 PM 73.4 °F - 71.6 °F 94% 29.90 in 10.0 mi ENE 4.6 mph - N/A   Partly Cloudy
11:52 PM 75.0 °F - 72.0 °F 90% 29.90 in 9.0 mi ENE 5.8 mph - N/A   Mostly Cloudy